User: anonymous   Login
Location: Newark
(25.6108°S, 54.5803°W)
Time: 14:07:10
(UTC+00:00)
Language:

Transit 4A - Orbit

View from above orbital plane
View from above orbital plane
View from above satellite
View from above satellite

Ground track
Ground track

The orbit data is extracted from the following two-line orbital elements,

1   116U 61015A   20304.93045056 -.00000057 +00000-0 +15599-4 0  9998
2   116 066.8101 237.0214 0082450 273.4701 085.6950 13.91777502010684
Epoch (UTC): 30 October 2020 22:19:50
Eccentricity: 0.0082450
inclination: 66.8101°
perigee height: 862 km
apogee height: 982 km
right ascension of ascending node: 237.0214°
argument of perigee: 273.4701°
revolutions per day: 13.91777502
mean anomaly at epoch: 85.6950°
orbit number at epoch: 1068

The dashed part of the orbit path shows where the satellite is in the earth's shadow,  

DLR